Location: Recife
(8.0585°S, 34.8848°W)
Time: 06:42:22
(UTC-03:00)

Vanguard 1 - Pass Details

Date: 17 April 2026
Orbit: 654 x 3817 km, 34.2° (Epoch: 13 May)

Event Time Altitude Azimuth Distance (km) Brightness Sun altitude
Rises 21:48:15 0° 274° (W) 6,893 14.7 -67.5°
Reaches altitude 10° 21:54:26 10° 288° (WNW) 6,307 14.3 -69.0°
Maximum altitude 22:09:04 22° 331° (NNW) 5,860 13.9 -72.5°
Drops below altitude 10° 22:24:56 10° 15° (NNE) 6,713 14.2 -76.4°
Sets 22:32:10 0° 30° (NNE) 7,404 14.5 -78.1°
